TimeCST,TemperatureF,Dew PointF,Humidity,Sea Level PressureIn,VisibilityMPH,Wind Direction,Wind SpeedMPH,Gust SpeedMPH,PrecipitationIn,Events,Conditions,WindDirDegrees,DateUTC
12:15 AM,22.6,20.7,92,30.38,7.0,South,3.5,-,N/A,,Clear,170,2013-01-07 06:15:00
12:35 AM,21.4,18.9,90,30.37,7.0,SSE,3.5,-,N/A,,Clear,160,2013-01-07 06:35:00
12:55 AM,21.2,19.0,91,30.37,7.0,Calm,Calm,-,N/A,,Clear,0,2013-01-07 06:55:00
1:15 AM,21.0,18.9,91,30.38,7.0,SSE,3.5,-,N/A,,Clear,160,2013-01-07 07:15:00
1:35 AM,20.8,18.5,91,30.38,7.0,SSE,3.5,-,N/A,,Clear,150,2013-01-07 07:35:00
1:55 AM,20.3,18.5,93,30.38,7.0,SSE,3.5,-,N/A,,Clear,150,2013-01-07 07:55:00
2:15 AM,20.7,18.5,91,30.39,7.0,SSE,3.5,-,N/A,,Clear,160,2013-01-07 08:15:00
2:35 AM,21.0,18.9,91,30.39,7.0,SSE,5.8,-,N/A,,Clear,160,2013-01-07 08:35:00
2:55 AM,20.1,17.8,91,30.38,7.0,SSE,6.9,-,N/A,,Clear,160,2013-01-07 08:55:00
3:15 AM,21.7,19.0,89,30.38,7.0,South,6.9,-,N/A,,Clear,170,2013-01-07 09:15:00
3:35 AM,21.7,19.2,90,30.38,7.0,South,6.9,-,N/A,,Clear,170,2013-01-07 09:35:00
3:55 AM,21.2,18.5,89,30.38,7.0,SSE,6.9,-,N/A,,Clear,160,2013-01-07 09:55:00
4:15 AM,21.2,18.7,90,30.38,7.0,South,5.8,-,N/A,,Clear,170,2013-01-07 10:15:00
4:35 AM,20.8,18.5,91,30.38,7.0,South,5.8,-,N/A,,Clear,170,2013-01-07 10:35:00
4:55 AM,20.1,17.8,91,30.38,7.0,SSE,4.6,-,N/A,,Clear,160,2013-01-07 10:55:00
5:15 AM,19.9,17.4,90,30.38,7.0,SSE,5.8,-,N/A,,Clear,160,2013-01-07 11:15:00
5:35 AM,20.7,18.5,91,30.38,5.0,SSE,5.8,-,N/A,,Clear,150,2013-01-07 11:35:00
5:55 AM,21.0,19.2,93,30.38,5.0,SSE,8.1,-,N/A,,Clear,150,2013-01-07 11:55:00
6:15 AM,21.6,19.8,93,30.37,5.0,SSE,9.2,-,N/A,,Clear,150,2013-01-07 12:15:00
6:35 AM,22.1,20.3,93,30.37,4.0,SSE,9.2,-,N/A,,Clear,160,2013-01-07 12:35:00
6:55 AM,23.0,20.7,91,30.37,5.0,SSE,10.4,-,N/A,,Clear,160,2013-01-07 12:55:00
7:15 AM,23.2,20.5,89,30.37,4.0,SSE,11.5,-,N/A,,Clear,160,2013-01-07 13:15:00
7:35 AM,23.5,20.7,89,30.37,5.0,SSE,11.5,-,N/A,,Clear,160,2013-01-07 13:35:00
7:55 AM,24.1,21.0,88,30.38,5.0,SSE,9.2,-,N/A,,Clear,160,2013-01-07 13:55:00
8:15 AM,25.0,21.6,87,30.38,5.0,SSE,10.4,-,N/A,,Clear,160,2013-01-07 14:15:00
8:35 AM,26.4,23.0,87,30.38,5.0,South,12.7,-,N/A,,Clear,170,2013-01-07 14:35:00
8:55 AM,27.3,23.5,86,30.38,5.0,SSE,13.8,-,N/A,,Clear,160,2013-01-07 14:55:00
9:15 AM,28.0,24.1,85,30.38,5.0,SSE,13.8,-,N/A,,Clear,160,2013-01-07 15:15:00
9:35 AM,28.4,24.3,84,30.38,5.0,South,16.1,-,N/A,,Clear,170,2013-01-07 15:35:00
9:55 AM,29.1,24.6,83,30.38,5.0,South,15.0,-,N/A,,Clear,170,2013-01-07 15:55:00
10:15 AM,30.0,25.5,83,30.37,5.0,South,16.1,-,N/A,,Haze,170,2013-01-07 16:15:00
10:35 AM,30.7,25.5,81,30.37,5.0,South,17.3,-,N/A,,Haze,170,2013-01-07 16:35:00
10:55 AM,31.3,25.9,80,30.36,7.0,South,18.4,-,N/A,,Clear,180,2013-01-07 16:55:00
11:15 AM,31.8,26.4,80,30.34,7.0,South,17.3,-,N/A,,Clear,170,2013-01-07 17:15:00
11:35 AM,32.0,26.8,81,30.33,5.0,South,17.3,-,N/A,,Haze,170,2013-01-07 17:35:00
11:55 AM,32.5,27.0,80,30.31,7.0,South,16.1,-,N/A,,Clear,180,2013-01-07 17:55:00
12:15 PM,32.9,27.3,80,30.30,7.0,South,16.1,23.0,N/A,,Clear,180,2013-01-07 18:15:00
12:35 PM,33.8,27.3,77,30.28,7.0,South,18.4,-,N/A,,Clear,170,2013-01-07 18:35:00
12:55 PM,34.2,27.3,76,30.27,7.0,South,16.1,-,N/A,,Clear,170,2013-01-07 18:55:00
1:15 PM,34.7,28.0,77,30.26,7.0,SSE,15.0,-,N/A,,Clear,160,2013-01-07 19:15:00
1:35 PM,34.9,27.0,73,30.26,7.0,SSE,15.0,-,N/A,,Clear,160,2013-01-07 19:35:00
1:55 PM,35.1,28.0,76,30.25,7.0,South,15.0,-,N/A,,Clear,170,2013-01-07 19:55:00
2:15 PM,35.4,27.5,73,30.24,7.0,SSE,12.7,-,N/A,,Clear,160,2013-01-07 20:15:00
2:35 PM,35.6,27.3,72,30.25,10.0,SSE,15.0,-,N/A,,Clear,160,2013-01-07 20:35:00
2:55 PM,35.6,27.9,73,30.25,10.0,South,12.7,16.1,N/A,,Clear,180,2013-01-07 20:55:00
3:15 PM,35.6,28.6,76,30.24,7.0,South,12.7,-,N/A,,Clear,170,2013-01-07 21:15:00
3:35 PM,35.6,27.1,71,30.23,10.0,SSE,12.7,-,N/A,,Clear,160,2013-01-07 21:35:00
3:55 PM,35.2,26.8,71,30.23,10.0,SSE,11.5,16.1,N/A,,Clear,160,2013-01-07 21:55:00
4:15 PM,33.8,26.6,75,30.22,10.0,SSE,12.7,-,N/A,,Clear,160,2013-01-07 22:15:00
4:35 PM,32.9,27.0,79,30.22,10.0,SSE,11.5,-,N/A,,Clear,160,2013-01-07 22:35:00
4:55 PM,33.3,26.4,76,30.20,10.0,SSE,12.7,-,N/A,,Clear,150,2013-01-07 22:55:00
5:15 PM,33.1,26.4,77,30.20,10.0,SSE,11.5,-,N/A,,Clear,160,2013-01-07 23:15:00
5:35 PM,33.1,26.1,75,30.20,10.0,SSE,11.5,-,N/A,,Clear,150,2013-01-07 23:35:00
5:55 PM,32.4,26.1,78,30.20,10.0,SSE,12.7,-,N/A,,Clear,150,2013-01-07 23:55:00
6:15 PM,32.2,25.7,77,30.20,10.0,SSE,10.4,-,N/A,,Clear,150,2013-01-08 00:15:00
6:35 PM,32.0,25.7,78,30.20,10.0,SSE,10.4,-,N/A,,Clear,150,2013-01-08 00:35:00
6:55 PM,32.0,25.5,77,30.19,10.0,SSE,10.4,-,N/A,,Clear,150,2013-01-08 00:55:00
7:15 PM,32.0,25.3,76,30.19,10.0,SSE,9.2,-,N/A,,Clear,150,2013-01-08 01:15:00
7:35 PM,32.0,25.3,76,30.19,10.0,SSE,10.4,-,N/A,,Clear,150,2013-01-08 01:35:00
7:55 PM,31.6,25.2,77,30.18,10.0,SSE,11.5,-,N/A,,Clear,160,2013-01-08 01:55:00
8:15 PM,32.0,25.2,76,30.18,10.0,SSE,12.7,-,N/A,,Clear,160,2013-01-08 02:15:00
8:35 PM,32.0,25.3,76,30.18,10.0,SSE,13.8,-,N/A,,Clear,160,2013-01-08 02:35:00
8:55 PM,32.0,25.5,77,30.18,10.0,SSE,12.7,-,N/A,,Clear,160,2013-01-08 02:55:00
9:15 PM,32.0,25.3,76,30.17,10.0,SSE,13.8,-,N/A,,Clear,160,2013-01-08 03:15:00
9:35 PM,32.0,25.7,78,30.18,10.0,South,12.7,-,N/A,,Clear,170,2013-01-08 03:35:00
9:55 PM,31.6,25.9,79,30.17,10.0,South,13.8,-,N/A,,Clear,170,2013-01-08 03:55:00
10:15 PM,31.1,25.3,79,30.17,10.0,South,15.0,-,N/A,,Clear,170,2013-01-08 04:15:00
10:35 PM,31.1,25.3,79,30.16,10.0,South,15.0,-,N/A,,Clear,170,2013-01-08 04:35:00
10:55 PM,30.9,25.3,80,30.17,10.0,South,11.5,-,N/A,,Clear,170,2013-01-08 04:55:00
11:15 PM,31.1,25.7,80,30.17,10.0,South,13.8,-,N/A,,Clear,170,2013-01-08 05:15:00
11:35 PM,30.9,25.7,81,30.17,10.0,South,11.5,-,N/A,,Clear,180,2013-01-08 05:35:00
11:55 PM,30.7,25.7,82,30.16,10.0,South,10.4,-,N/A,,Clear,170,2013-01-08 05:55:00